Tracking 19817 objects as of 20-Aug-2019
HD Live streaming from Space Station
objects crossing your sky now

COSMOS 2251 DEB

Track COSMOS 2251 DEB now!
10-day predictions


NORAD ID: 35707
Int'l Code: 1993-036AQC
Perigee: 545.0 km
Apogee: 548.0 km
Inclination: 74.0 °
Period: 95.4 minutes
Semi major axis: 6917 km
RCS: 0.0081 m2 (small)
Launch date: June 16, 1993
Source: Commonwealth of Independent States (former USSR) (CIS)
Launch site: PLESETSK MISSILE AND SPACE COMPLEX (PKMTR)

Note: This is SATELLITE DEBRIS
aabbcc
Your satellite tracking list
Your tracking list is empty




NASA's NSSDC Master Catalog

Two Line Element Set (TLE):
1 35707U 93036AQC 19232.40937789  .00007425  00000-0  47242-3 0  9997
2 35707  74.0049 224.3714 0002176 133.0199 227.1175 15.08957696548180
Source of the keplerian elements: AFSPC